Theta_e
295 290 287 290 293 292 291 290 289 293 296 292 291 292 295 298 299 298 298 299 301 302 304 306 307 314 321 324 326 327 326 325 323 320 315 313 311 312 312 313 314 314 315 315
289 285 292 293 293 292 291 288 289 292 296 289 290 291 294 297 297 299 299 299 300 301 303 304 304 306 315 320 324 326 326 325 323 320 317 315 314 312 312 312 312 314 315 315
281 288 293 291 290 289 291 289 288 288 292 291 289 288 290 295 297 298 299 300 301 301 301 303 303 304 307 317 322 324 326 326 323 320 317 314 314 313 311 310 310 312 314 315
281 287 286 287 287 290 285 292 291 290 288 284 292 282 291 296 297 298 299 299 300 301 303 303 304 303 305 312 321 323 326 326 324 321 314 311 309 307 309 310 311 311 313 314
280 283 284 284 286 290 288 292 291 290 287 286 286 284 288 294 293 297 300 301 301 303 303 303 305 305 305 312 317 322 324 325 323 320 314 312 311 311 310 310 309 310 312 314
280 288 287 287 290 290 293 290 289 289 287 279 285 286 287 291 294 297 300 302 303 303 304 305 306 307 306 310 317 321 322 323 322 320 314 313 313 311 308 308 308 309 311 312
279 281 287 288 282 290 289 286 279 277 278 278 287 285 288 295 297 298 299 301 303 306 306 305 306 305 304 309 316 319 320 321 321 319 315 315 315 311 309 308 308 307 309 310
274 275 284 288 284 283 286 286 280 273 275 279 286 282 288 296 298 299 300 301 303 305 306 306 305 305 304 307 315 318 318 319 319 317 316 315 315 311 310 309 308 308 309 310
271 274 281 282 288 287 285 281 289 284 280 280 284 287 292 296 296 296 297 300 302 303 301 301 302 304 303 307 314 317 317 317 318 316 316 315 314 311 310 309 309 308 309 310
277 271 280 284 288 289 286 290 280 283 276 275 281 284 286 291 293 297 298 298 300 302 302 301 300 299 302 306 313 316 316 316 316 316 315 314 312 311 310 309 308 308 308 310
279 276 277 283 282 282 284 283 284 286 284 279 278 282 293 294 296 297 298 297 299 301 301 301 298 300 303 307 312 314 314 314 313 313 314 313 311 311 309 308 307 307 308 310
279 277 274 277 285 288 288 285 285 279 279 283 283 284 292 293 293 294 295 293 294 298 301 298 299 302 305 308 311 311 312 312 312 313 312 311 311 310 307 307 307 307 307 310
282 276 271 273 282 285 282 286 287 287 286 282 280 283 293 294 294 293 294 294 294 295 295 299 302 304 306 308 308 308 310 310 311 311 310 310 309 308 307 306 306 307 307 308
283 278 274 270 274 280 279 283 287 286 281 282 284 286 291 292 292 293 294 295 295 295 297 299 302 303 306 307 305 306 307 309 309 309 309 308 308 307 306 306 306 306 307 308
281 275 277 278 279 280 282 283 284 283 286 282 285 287 291 291 292 292 293 294 295 295 296 298 298 300 302 302 303 304 305 306 308 308 308 307 307 307 306 305 305 305 306 307
281 274 276 274 278 278 278 282 285 285 286 286 287 286 294 294 294 294 293 294 295 295 296 298 299 297 299 300 302 302 302 303 307 307 307 307 306 306 305 304 304 304 305 306
277 276 273 271 276 275 274 279 280 285 288 288 283 290 292 292 293 294 294 295 295 297 298 299 299 299 299 299 301 300 301 304 305 305 306 306 306 304 304 303 303 303 303 305
276 275 274 272 274 269 277 283 284 282 285 289 290 291 294 293 294 295 296 295 294 295 298 300 301 301 302 302 301 301 301 302 304 304 305 305 304 303 303 302 302 302 303 304
280 276 272 270 270 274 277 282 282 281 281 287 287 291 292 294 295 293 295 296 295 295 296 297 300 303 303 302 304 301 300 301 302 302 303 304 304 303 302 301 301 302 303 303
279 279 274 272 268 267 278 284 286 285 278 287 288 289 292 292 287 292 295 296 295 295 295 296 296 299 303 304 303 302 301 301 301 302 303 304 305 303 302 302 301 302 303 302
273 274 271 271 270 274 279 286 285 274 277 287 289 289 290 289 288 290 292 292 294 294 294 295 296 295 297 302 303 301 301 301 303 301 302 302 303 302 303 302 301 301 301 301
271 271 270 272 269 267 282 284 277 282 287 287 290 289 289 289 290 289 289 289 290 291 293 293 294 292 294 296 300 297 299 298 298 298 297 297 299 301 302 301 298 297 299 297
270 275 273 275 274 281 283 282 285 285 283 284 284 288 290 289 290 290 290 291 290 289 290 291 290 290 289 289 294 294 293 291 291 293 290 291 291 293 296 298 296 296 296 296
276 280 276 277 279 281 283 283 284 284 283 284 285 285 287 287 287 289 290 291 291 289 288 288 287 287 287 287 287 289 288 288 289 289 289 289 290 291 292 293 295 296 296 295
278 279 276 276 279 281 282 283 284 284 285 284 285 285 284 285 287 288 289 290 291 288 286 286 286 285 286 287 287 286 287 288 288 288 289 289 292 292 292 294 294 293 296 297
280 277 275 274 280 280 280 284 286 283 283 284 284 284 286 286 286 289 289 290 289 288 286 285 285 284 286 286 286 286 285 288 289 288 289 290 292 293 293 293 292 290 293 293
Wind_Speed
15 16 28 27 27 25 25 21 25 20 20 13 20 21 22 19 20 18 16 15 19 21 18 17 19 18 19 18 20 20 19 18 13 11 10 8 8 7 5 5 6 8 6 5
16 29 26 23 26 28 29 29 30 18 13 8 15 22 20 21 22 23 22 23 22 19 18 18 17 19 21 21 20 19 20 19 16 11 9 8 8 7 6 6 7 7 7 6
24 27 19 27 28 29 31 33 26 25 10 10 16 23 25 26 25 25 24 23 23 23 22 20 20 20 19 20 21 19 19 19 18 16 11 8 8 6 6 7 7 7 8 7
21 31 32 30 29 30 30 25 25 24 19 19 13 17 21 16 23 25 24 23 23 22 20 20 20 20 19 20 18 19 19 19 18 18 15 16 11 10 7 8 7 7 9 8
30 26 26 30 34 26 32 20 22 22 21 14 22 15 19 18 25 24 21 21 22 21 21 21 19 20 21 19 19 19 20 20 19 18 17 14 12 9 8 8 10 9 9 8
32 30 26 19 20 29 20 22 21 15 13 13 28 21 18 20 22 17 18 20 21 21 22 21 18 16 18 18 18 19 21 20 20 19 19 18 17 14 11 10 9 8 7 6
26 22 32 29 30 25 26 18 9 11 9 17 18 19 28 15 16 16 21 20 20 18 18 18 17 17 17 19 20 19 21 21 21 21 19 18 16 16 15 14 10 11 8 7
13 18 20 29 30 16 31 26 11 16 14 25 12 16 19 13 22 22 17 15 14 15 11 13 16 16 18 20 22 22 22 22 21 21 20 17 17 11 10 12 10 8 8 8
10 12 25 25 29 26 21 30 30 14 1 7 12 27 23 13 10 11 16 15 17 15 12 13 13 14 15 18 21 22 22 21 22 21 18 18 16 15 12 13 11 9 9 8
6 18 17 18 24 30 25 25 23 16 15 13 15 21 13 16 22 22 17 14 13 12 14 13 12 12 13 15 17 18 18 19 20 20 18 15 16 14 13 12 12 12 10 11
20 15 16 9 9 30 25 24 17 20 18 13 9 11 3 15 17 11 7 5 10 14 12 12 10 11 11 12 14 16 16 18 18 17 17 17 15 15 13 12 11 12 12 12
19 8 13 23 11 18 28 28 27 17 24 21 11 9 4 5 8 7 9 3 5 9 7 10 10 12 12 12 13 14 15 16 16 16 16 16 15 15 14 13 13 13 12 12
7 4 12 17 9 12 10 25 28 26 19 20 14 8 3 6 5 4 5 2 1 1 7 10 10 11 13 13 13 12 14 14 15 16 16 16 16 15 14 13 13 13 13 12
17 5 10 14 20 24 11 17 27 28 21 17 21 14 18 8 9 7 5 2 2 3 6 8 9 10 12 12 11 13 12 13 14 15 15 15 15 15 14 14 13 12 13 13
5 8 9 14 18 15 11 17 25 28 25 21 15 7 19 4 8 5 3 2 2 3 3 8 9 10 8 10 9 9 9 12 15 14 15 15 14 14 14 14 13 12 12 11
8 8 16 16 10 13 12 12 19 25 22 20 17 2 9 8 3 5 2 1 2 4 4 6 9 9 10 8 9 10 9 10 14 14 13 13 14 14 14 14 13 12 12 12
12 7 12 9 12 17 5 5 9 18 23 20 16 15 3 6 6 4 3 3 4 3 5 6 8 9 9 10 9 10 10 10 14 14 12 13 14 14 14 14 14 13 13 13
13 12 7 8 12 5 6 8 10 8 8 13 13 13 14 3 4 4 5 5 5 4 6 6 7 8 8 9 8 10 10 9 10 13 13 13 14 14 13 13 13 13 12 13
12 9 6 5 8 13 6 5 5 4 5 6 2 10 8 4 4 2 6 6 7 7 6 7 7 7 9 9 10 11 10 9 9 10 11 13 14 15 14 14 14 12 12 11
5 10 7 6 6 4 4 7 2 11 2 10 5 6 10 4 8 5 9 9 10 10 8 8 8 5 6 8 9 10 11 9 9 10 11 11 11 13 14 14 13 11 11 10
3 5 11 9 7 8 8 7 4 4 5 13 11 11 7 1 9 10 11 13 11 9 9 8 9 9 8 5 4 5 8 9 8 7 9 10 11 12 12 12 10 11 10 10
6 5 5 4 5 7 8 2 5 9 9 12 12 9 12 14 14 14 13 14 13 13 12 11 10 9 8 5 3 3 2 4 7 7 7 6 7 7 9 12 9 9 11 11
9 9 6 6 5 4 5 4 4 6 9 11 10 11 9 4 9 12 11 11 11 11 9 7 8 7 7 6 6 3 2 4 5 7 6 5 6 6 7 11 10 8 8 8
8 11 6 6 10 10 6 4 3 6 7 7 8 10 7 5 2 11 11 7 8 5 7 5 7 8 7 5 5 4 4 4 5 6 6 6 5 5 5 4 6 9 9 8
10 6 10 12 13 10 12 9 4 5 5 6 7 7 8 7 4 7 11 11 5 1 2 3 3 3 4 4 4 3 4 4 4 5 6 6 6 7 5 4 6 4 6 9
11 14 8 9 11 8 9 6 6 7 8 8 7 7 4 5 6 5 8 9 8 6 1 1 3 3 3 3 3 2 1 4 5 4 3 5 5 6 6 6 3 7 2 7
Wind_Direction
231 225 227 225 224 239 251 248 237 241 228 227 242 255 253 248 243 236 241 244 245 226 227 224 208 208 198 198 195 192 185 182 173 168 170 168 175 170 173 166 155 174 160 164
247 243 242 245 243 239 239 243 248 258 246 224 267 264 255 253 248 251 246 241 236 237 232 213 208 204 202 199 198 192 188 181 180 172 171 165 173 176 168 167 174 174 166 167
270 268 271 236 249 240 234 234 237 246 255 239 273 268 259 252 249 246 244 242 242 237 228 216 201 201 202 200 196 194 188 184 181 174 161 157 158 154 160 174 172 178 176 168
277 264 260 269 256 240 242 234 249 250 249 253 223 277 266 262 241 227 233 231 233 234 232 220 202 198 197 198 192 193 187 185 181 176 166 167 164 164 181 173 169 170 177 172
267 264 245 242 250 257 251 248 245 243 245 265 255 263 264 238 244 240 236 227 231 227 226 221 217 191 194 188 187 187 185 186 180 181 174 169 173 171 160 163 162 166 173 173
280 259 259 277 274 239 268 243 241 233 233 238 239 237 260 242 246 249 247 238 222 227 219 218 210 200 191 186 184 181 183 186 179 182 178 177 176 165 162 164 165 167 166 170
299 283 260 242 259 257 223 221 194 203 200 233 222 224 235 245 232 250 242 238 236 225 214 212 212 191 185 183 181 176 180 185 182 184 183 180 176 164 170 166 166 164 167 171
303 295 231 238 218 266 208 211 208 196 196 234 191 229 226 238 243 248 252 246 251 235 219 206 200 194 190 183 182 177 181 182 181 182 184 179 174 168 170 172 164 167 167 168
310 280 309 290 234 209 223 215 219 247 95 263 213 236 268 257 243 240 246 241 235 220 206 197 198 193 189 187 183 181 180 180 180 181 178 177 173 167 167 165 163 163 158 159
277 300 300 292 257 217 232 218 218 235 240 230 228 236 242 198 225 228 236 224 231 226 211 194 185 187 190 188 185 181 181 180 178 177 177 173 166 166 159 158 160 159 153 155
297 256 274 288 240 211 223 220 217 226 231 232 243 239 283 237 255 249 246 293 254 215 206 186 183 174 179 182 180 179 179 174 174 175 173 168 167 162 153 154 158 155 151 159
287 283 281 288 242 256 219 215 214 223 215 237 251 236 49 341 323 306 278 276 300 273 174 157 170 164 166 171 170 173 176 169 173 173 168 165 161 160 153 155 155 156 157 160
342 268 311 323 271 220 269 218 216 219 232 233 233 231 52 16 341 333 308 301 76 291 143 144 155 163 164 166 164 170 175 166 167 167 164 161 162 159 155 153 155 158 157 159
274 253 265 275 285 292 195 235 225 219 221 222 228 228 256 9 352 348 358 337 93 163 158 149 150 157 160 158 169 172 171 166 165 164 162 161 161 157 152 149 151 157 157 159
289 267 275 286 301 302 301 244 217 230 227 226 229 223 233 17 339 338 334 326 116 88 164 154 153 157 150 158 158 149 169 162 168 163 161 161 155 153 149 148 152 155 158 160
307 294 317 299 322 326 303 272 245 224 231 236 239 289 316 351 337 343 24 38 92 147 169 152 149 154 158 143 142 144 145 158 166 163 160 154 152 151 149 147 150 152 154 160
285 309 329 301 323 317 262 347 314 243 230 230 225 226 68 347 351 37 58 85 79 101 130 143 145 154 160 165 146 146 147 155 162 160 155 153 154 150 151 150 152 157 157 158
267 296 290 305 310 277 323 305 286 290 297 258 245 233 246 14 31 49 48 90 91 73 93 95 111 131 143 150 152 142 146 158 157 160 154 154 153 152 152 153 156 155 158 162
244 258 282 288 311 286 272 351 332 245 67 27 244 254 244 194 161 140 21 36 43 42 32 56 57 93 128 141 144 149 145 147 147 155 158 158 159 154 155 158 159 158 159 164
256 247 246 294 283 285 68 203 195 307 125 1 328 257 235 145 217 107 51 35 44 33 27 31 33 51 100 123 144 147 155 152 161 161 158 156 160 159 161 160 160 156 159 161
266 246 253 258 269 283 360 347 330 336 45 4 23 26 26 85 31 38 36 40 48 46 35 28 39 45 41 66 120 139 149 163 156 148 148 155 159 161 162 158 154 154 151 148
247 237 229 232 257 268 6 303 28 9 17 19 28 48 37 38 24 37 30 28 23 32 29 26 43 35 27 46 78 98 135 102 123 125 129 131 147 150 157 156 151 156 154 151
246 233 266 233 231 40 345 12 10 15 13 7 12 10 31 28 336 352 358 10 10 21 25 25 26 31 22 20 24 106 93 104 109 117 111 122 121 130 145 152 154 151 156 160
225 255 250 256 258 274 303 345 323 332 347 353 354 360 35 44 24 310 320 329 338 5 21 24 22 25 21 6 43 42 49 112 127 122 130 124 130 140 135 126 164 166 168 167
229 171 226 253 277 283 279 290 7 1 355 333 356 3 344 348 302 283 289 303 315 15 46 30 12 16 16 351 15 16 94 104 136 153 143 149 157 170 163 164 168 171 192 181
204 221 218 235 254 254 281 321 347 344 322 323 325 327 297 280 288 273 275 288 301 325 171 8 346 341 335 11 344 7 50 136 132 132 152 164 160 170 168 164 147 58 121 182